Location: Unspecified
(0.0000°N, 0.0000°E)
Time: 13:25:14
(UTC+00:00)

S-56A Canister/Altair - Pass Details

Date: 04 December 2023
Orbit: 640 x 2488 km, 38.9° (Epoch: 24 February)

Event Time Altitude Azimuth Distance (km) Brightness Sun altitude
Rises 22:25:48 0° 272° (W) 5,022 12.0 -59.7°
Reaches altitude 10° 22:29:50 10° 258° (WSW) 4,319 11.6 -60.3°
Maximum altitude 22:38:49 23° 210° (SSW) 3,821 11.2 -61.7°
Drops below altitude 10° 22:49:27 10° 163° (SSE) 5,124 11.8 -63.2°
Sets 22:54:59 0° 150° (SSE) 6,163 12.3 -64.0°
